Weather History for KAMW - January, 2014

Change the Weather History Date:

Monday, January 27, 2014

  Actual Average Record
Temperature  
Mean Temperature -1 °F 20 °F  
Max Temperature 4 °F 30 °F 57 °F (2002)
Min Temperature -7 °F 11 °F -10 °F (2009)
Degree Days  
Heating Degree Days 66 45  
Month to date heating degree days 1360 1224  
Since 1 July heating degree days 4223 3978  
Cooling Degree Days 0 0  
Month to date cooling degree days 0 0  
Year to date cooling degree days 0 0  
Moisture  
Dew Point -13 °F    
Average Humidity 60    
Maximum Humidity 75    
Minimum Humidity 44    
Precipitation  
Precipitation 0.00 in 0.04 in 0.38 in (1979)
Month to date precipitation 0.09 0.57  
Sea Level Pressure  
Sea Level Pressure 30.43 in    
Wind  
Wind Speed 14 mph (NW)    
Max Wind Speed 30 mph    
Max Gust Speed 38 mph    
Visibility 10 miles    
Events      
T = Trace of Precipitation, MM = Missing Value Source: NWS Daily Summary

Daily Weather History Graph

Daily Weather History Graph

Search for Another Location

Airport or City:

Trip Planner

Search our weather history database for the weather conditions in past years. The results will help you decide how hot, cold, wet, or windy it might be!

Date:

Astronomy

Jan. 27, 2014 Rise Set
Actual Time 7:31 AM CST 5:23 PM CST
Civil Twilight 7:01 AM CST 5:53 PM CST
Nautical Twilight 6:28 AM CST 6:26 PM CST
Astronomical Twilight 5:55 AM CST 6:59 PM CST
Moon 4:14 AM CST (1/27) 2:09 PM CST (1/27)
Length of Visible Light 10h 51m
Length of Day
9h 51m
Waning Crescent, 14% of the Moon is Illuminated
Jan 27
Waning Crescent
Jan 30
New
Feb 6
First Quarter
Feb 14
Full
Feb 22
Last Quarter

Hourly Weather History & Observations

Time (CST) Temp. Windchill Dew Point Humidity Pressure Visibility Wind Dir Wind Speed Gust Speed Precip Events Conditions
12:24 AM 1.0 °F -22.4 °F -9.0 °F 63% 30.20 in 10.0 mi NW 24.2 mph 31.1 mph N/A   Mostly Cloudy
12:53 AM -0.0 °F -25.1 °F -11.9 °F 57% 30.24 in 10.0 mi NW 27.6 mph 38.0 mph N/A   Scattered Clouds
1:15 AM -0.0 °F -23.8 °F -9.9 °F 63% 30.22 in 10.0 mi NW 24.2 mph 31.1 mph N/A   Mostly Cloudy
1:45 AM -0.9 °F -23.0 °F -14.1 °F 54% 30.25 in 10.0 mi NW 19.6 mph - N/A   Scattered Clouds
1:53 AM -0.9 °F -21.9 °F -13.0 °F 57% 30.30 in 10.0 mi NW 17.3 mph - N/A   Partly Cloudy
2:53 AM -0.9 °F -24.5 °F -13.0 °F 57% 30.31 in 10.0 mi NW 23.0 mph 31.1 mph N/A   Clear
3:53 AM -0.9 °F -21.9 °F -13.0 °F 57% 30.32 in 10.0 mi NW 17.3 mph 26.5 mph N/A   Clear
4:25 AM -2.0 °F -24.4 °F -11.9 °F 63% 30.28 in 10.0 mi NW 19.6 mph 29.9 mph N/A   Mostly Cloudy
4:53 AM -2.0 °F -23.9 °F -13.0 °F 60% 30.35 in 10.0 mi NW 18.4 mph 31.1 mph N/A   Scattered Clouds
5:53 AM -4.0 °F -25.8 °F -16.1 °F 56% 30.40 in 10.0 mi NNW 17.3 mph 28.8 mph N/A   Clear
6:53 AM -5.1 °F -25.1 °F -14.1 °F 65% 30.42 in 10.0 mi NW 13.8 mph - N/A   Partly Cloudy
7:53 AM -5.1 °F -27.2 °F -15.0 °F 62% 30.43 in 10.0 mi NW 17.3 mph 29.9 mph N/A   Clear
8:53 AM -4.0 °F -29.1 °F -16.1 °F 56% 30.47 in 10.0 mi NW 24.2 mph 31.1 mph N/A   Clear
9:53 AM -2.0 °F -25.5 °F -15.0 °F 54% 30.49 in 10.0 mi NNW 21.9 mph 28.8 mph N/A   Clear
10:53 AM -0.9 °F -23.0 °F -16.1 °F 49% 30.52 in 10.0 mi NNW 19.6 mph 27.6 mph N/A   Clear
11:53 AM 1.0 °F -19.3 °F -14.1 °F 49% 30.51 in 10.0 mi NW 17.3 mph - N/A   Partly Cloudy
12:53 PM 1.9 °F -18.1 °F -14.1 °F 47% 30.50 in 10.0 mi NNW 17.3 mph - N/A   Clear
1:53 PM 3.9 °F -16.1 °F -14.1 °F 43% 30.49 in 10.0 mi NW 18.4 mph 21.9 mph N/A   Clear
2:53 PM 3.9 °F -13.0 °F -14.1 °F 43% 30.49 in 10.0 mi NNW 12.7 mph - N/A   Clear
3:53 PM 3.9 °F -9.4 °F -13.0 °F 46% 30.50 in 10.0 mi NNW 8.1 mph - N/A   Clear
4:53 PM 3.0 °F -13.3 °F -13.0 °F 47% 30.51 in 10.0 mi NNW 11.5 mph - N/A   Clear
5:53 PM 1.0 °F -12.9 °F -11.9 °F 55% 30.53 in 10.0 mi NW 8.1 mph - N/A   Clear
6:53 PM -0.0 °F -15.3 °F -11.9 °F 57% 30.54 in 10.0 mi NW 9.2 mph - N/A   Clear
7:53 PM -0.0 °F -15.3 °F -11.9 °F 57% 30.53 in 10.0 mi NW 9.2 mph - N/A   Clear
8:53 PM -2.9 °F -11.2 °F -11.9 °F 65% 30.54 in 10.0 mi NW 3.5 mph - N/A   Clear
9:53 PM -4.0 °F -12.4 °F -11.9 °F 69% 30.54 in 10.0 mi WNW 3.5 mph - N/A   Clear
10:53 PM -6.0 °F -16.9 °F -11.9 °F 75% 30.54 in 10.0 mi WSW 4.6 mph - N/A   Clear
11:53 PM -7.1 °F -15.9 °F -13.0 °F 75% 30.54 in 10.0 mi WSW 3.5 mph - N/A   Clear